Time,TemperatureF,DewpointF,PressureIn,WindDirection,WindDirectionDegrees,WindSpeedMPH,WindSpeedGustMPH,Humidity,HourlyPrecipIn,Conditions,Clouds,dailyrainin,SoftwareType,DateUTC
2013-02-02 00:03:00,14.0,7.0,30.27,North,359,1.0,6.0,73,0.00,,,0.00,,2013-02-02 05:03:00,
2013-02-02 00:12:00,14.0,7.0,30.27,North,359,1.0,6.0,73,0.00,,,0.00,,2013-02-02 05:12:00,
2013-02-02 00:22:00,14.0,7.0,30.27,NNE,29,1.0,2.0,74,0.00,,,0.00,,2013-02-02 05:22:00,
2013-02-02 00:33:00,14.0,7.0,30.27,East,98,0.0,2.0,74,0.00,,,0.00,,2013-02-02 05:33:00,
2013-02-02 00:41:00,14.0,7.0,30.27,East,98,0.0,2.0,74,0.00,,,0.00,,2013-02-02 05:41:00,
2013-02-02 00:52:00,14.0,8.0,30.27,East,98,0.0,2.0,75,0.00,,,0.00,,2013-02-02 05:52:00,
2013-02-02 01:02:00,15.0,9.0,30.27,NE,47,0.0,2.0,75,0.00,,,0.00,,2013-02-02 06:02:00,
2013-02-02 01:12:00,15.0,9.0,30.27,NE,47,0.0,2.0,75,0.00,,,0.00,,2013-02-02 06:12:00,
2013-02-02 01:21:00,15.0,9.0,30.26,ENE,57,0.0,2.0,76,0.00,,,0.00,,2013-02-02 06:21:00,
2013-02-02 01:31:00,15.0,9.0,30.26,ESE,104,1.0,2.0,77,0.00,,,0.00,,2013-02-02 06:31:00,
2013-02-02 01:41:00,15.0,9.0,30.26,ESE,104,1.0,2.0,77,0.00,,,0.00,,2013-02-02 06:41:00,
2013-02-02 01:52:00,15.0,10.0,30.24,ESE,102,1.0,3.0,79,0.00,,,0.00,,2013-02-02 06:52:00,
2013-02-02 02:02:00,15.0,10.0,30.24,ENE,63,1.0,3.0,79,0.00,,,0.00,,2013-02-02 07:02:00,
2013-02-02 02:11:00,15.0,10.0,30.24,East,81,0.0,0.0,81,0.00,,,0.00,,2013-02-02 07:11:00,
2013-02-02 02:21:00,15.0,10.0,30.24,East,81,0.0,0.0,81,0.00,,,0.00,,2013-02-02 07:21:00,
2013-02-02 02:31:00,15.0,10.0,30.24,NNE,28,0.0,1.0,81,0.00,,,0.00,,2013-02-02 07:31:00,
2013-02-02 02:41:00,15.0,10.0,30.24,NNE,28,0.0,1.0,81,0.00,,,0.00,,2013-02-02 07:41:00,
2013-02-02 02:52:00,16.0,11.0,30.24,NE,47,0.0,3.0,82,0.00,,,0.00,,2013-02-02 07:52:00,
2013-02-02 03:01:00,16.0,11.0,30.24,NE,48,0.0,1.0,82,0.00,,,0.00,,2013-02-02 08:01:00,
2013-02-02 03:11:00,16.0,11.0,30.24,NE,48,0.0,1.0,82,0.00,,,0.00,,2013-02-02 08:11:00,
2013-02-02 03:21:00,16.0,12.0,30.22,ESE,111,0.0,1.0,83,0.00,,,0.00,,2013-02-02 08:21:00,
2013-02-02 03:31:00,16.0,12.0,30.22,ESE,111,0.0,0.0,83,0.00,,,0.00,,2013-02-02 08:31:00,
2013-02-02 03:41:00,16.0,12.0,30.22,ESE,111,0.0,0.0,83,0.00,,,0.00,,2013-02-02 08:41:00,
2013-02-02 03:53:00,16.0,12.0,30.20,NE,54,0.0,2.0,84,0.00,,,0.00,,2013-02-02 08:53:00,
2013-02-02 04:01:00,16.0,12.0,30.20,NE,50,0.0,2.0,84,0.00,,,0.00,,2013-02-02 09:01:00,
2013-02-02 04:11:00,16.0,12.0,30.20,NE,50,0.0,2.0,84,0.00,,,0.00,,2013-02-02 09:11:00,
2013-02-02 04:22:00,16.0,12.0,30.18,SSE,167,0.0,0.0,84,0.00,,,0.00,,2013-02-02 09:22:00,
2013-02-02 04:31:00,17.0,13.0,30.18,North,5,0.0,0.0,84,0.00,,,0.00,,2013-02-02 09:31:00,
2013-02-02 04:41:00,17.0,13.0,30.18,North,5,0.0,0.0,84,0.00,,,0.00,,2013-02-02 09:41:00,
2013-02-02 04:52:00,17.0,13.0,30.15,NW,309,0.0,2.0,84,0.00,,,0.00,,2013-02-02 09:52:00,
2013-02-02 05:01:00,17.0,13.0,30.15,East,88,0.0,2.0,84,0.00,,,0.00,,2013-02-02 10:01:00,
2013-02-02 05:11:00,17.0,13.0,30.15,East,88,0.0,2.0,84,0.00,,,0.00,,2013-02-02 10:11:00,
2013-02-02 05:21:00,17.0,13.0,30.14,NNE,22,0.0,3.0,84,0.00,,,0.00,,2013-02-02 10:21:00,
2013-02-02 05:31:00,18.0,14.0,30.14,East,95,0.0,2.0,84,0.00,,,0.00,,2013-02-02 10:31:00,
2013-02-02 05:42:00,18.0,14.0,30.14,East,95,0.0,2.0,84,0.00,,,0.00,,2013-02-02 10:42:00,
2013-02-02 05:52:00,18.0,14.0,30.12,NW,323,0.0,2.0,84,0.00,,,0.00,,2013-02-02 10:52:00,
2013-02-02 06:01:00,18.0,14.0,30.12,ESE,120,0.0,4.0,83,0.00,,,0.00,,2013-02-02 11:01:00,
2013-02-02 06:11:00,18.0,14.0,30.12,ESE,120,0.0,4.0,83,0.00,,,0.00,,2013-02-02 11:11:00,
2013-02-02 06:21:00,18.0,14.0,30.11,ESE,107,0.0,2.0,83,0.00,,,0.00,,2013-02-02 11:21:00,
2013-02-02 06:32:00,18.0,14.0,30.11,NNE,15,0.0,2.0,83,0.00,,,0.00,,2013-02-02 11:32:00,
2013-02-02 06:42:00,18.0,14.0,30.11,NNE,15,0.0,2.0,83,0.00,,,0.00,,2013-02-02 11:42:00,
2013-02-02 06:52:00,18.0,14.0,30.10,NNE,26,0.0,2.0,84,0.00,,,0.00,,2013-02-02 11:52:00,
2013-02-02 07:01:00,18.0,14.0,30.10,NNW,332,0.0,4.0,84,0.00,,,0.00,,2013-02-02 12:01:00,
2013-02-02 07:11:00,18.0,14.0,30.10,NNW,332,0.0,4.0,84,0.00,,,0.00,,2013-02-02 12:11:00,
2013-02-02 07:22:00,19.0,15.0,30.09,NE,42,0.0,3.0,84,0.00,,,0.00,,2013-02-02 12:22:00,
2013-02-02 07:32:00,19.0,15.0,30.09,SSE,148,0.0,1.0,85,0.00,,,0.00,,2013-02-02 12:32:00,
2013-02-02 07:42:00,19.0,15.0,30.09,SSE,148,0.0,1.0,85,0.00,,,0.00,,2013-02-02 12:42:00,
2013-02-02 07:52:00,19.0,15.0,30.09,ESE,105,0.0,2.0,85,0.00,,,0.00,,2013-02-02 12:52:00,
2013-02-02 08:02:00,19.0,15.0,30.09,East,82,0.0,2.0,85,0.00,,,0.00,,2013-02-02 13:02:00,
2013-02-02 08:11:00,19.0,15.0,30.09,East,82,0.0,2.0,85,0.00,,,0.00,,2013-02-02 13:11:00,
2013-02-02 08:21:00,19.0,15.0,30.09,South,188,0.0,1.0,85,0.00,,,0.00,,2013-02-02 13:21:00,
2013-02-02 08:32:00,19.0,15.0,30.09,East,96,0.0,4.0,85,0.00,,,0.00,,2013-02-02 13:32:00,
2013-02-02 08:42:00,19.0,15.0,30.09,East,96,0.0,4.0,85,0.00,,,0.00,,2013-02-02 13:42:00,
2013-02-02 08:52:00,19.0,15.0,30.09,ESE,105,0.0,2.0,85,0.00,,,0.00,,2013-02-02 13:52:00,
2013-02-02 09:02:00,19.0,15.0,30.09,ENE,74,0.0,2.0,85,0.00,,,0.00,,2013-02-02 14:02:00,
2013-02-02 09:11:00,19.0,15.0,30.09,ENE,74,0.0,2.0,85,0.00,,,0.00,,2013-02-02 14:11:00,
2013-02-02 09:22:00,20.0,16.0,30.09,North,356,0.0,2.0,85,0.00,,,0.00,,2013-02-02 14:22:00,
2013-02-02 09:32:00,20.0,16.0,30.09,ENE,72,0.0,2.0,85,0.00,,,0.00,,2013-02-02 14:32:00,
2013-02-02 09:42:00,20.0,16.0,30.09,ENE,72,0.0,2.0,85,0.00,,,0.00,,2013-02-02 14:42:00,
2013-02-02 09:52:00,20.0,16.0,30.08,NW,321,0.0,3.0,85,0.00,,,0.00,,2013-02-02 14:52:00,
2013-02-02 10:03:00,20.0,16.0,30.08,SE,131,0.0,1.0,85,0.00,,,0.00,,2013-02-02 15:03:00,
2013-02-02 10:12:00,20.0,16.0,30.08,SE,131,0.0,1.0,85,0.00,,,0.00,,2013-02-02 15:12:00,
2013-02-02 10:22:00,21.0,17.0,30.07,ESE,121,0.0,2.0,85,0.00,,,0.00,,2013-02-02 15:22:00,
2013-02-02 10:32:00,21.0,17.0,30.07,ESE,117,0.0,2.0,85,0.00,,,0.00,,2013-02-02 15:32:00,
2013-02-02 10:42:00,21.0,17.0,30.07,ESE,117,0.0,2.0,85,0.00,,,0.00,,2013-02-02 15:42:00,
2013-02-02 10:52:00,21.0,17.0,30.06,East,86,0.0,3.0,85,0.00,,,0.00,,2013-02-02 15:52:00,
2013-02-02 11:02:00,22.0,18.0,30.06,ESE,123,0.0,3.0,85,0.00,,,0.00,,2013-02-02 16:02:00,
2013-02-02 11:11:00,22.0,18.0,30.06,ESE,123,0.0,3.0,85,0.00,,,0.00,,2013-02-02 16:11:00,
2013-02-02 11:22:00,22.0,18.0,30.06,NE,43,1.0,4.0,84,0.00,,,0.00,,2013-02-02 16:22:00,
2013-02-02 11:32:00,23.0,19.0,30.06,ENE,71,0.0,4.0,84,0.00,,,0.00,,2013-02-02 16:32:00,
2013-02-02 11:42:00,23.0,19.0,30.06,ENE,71,0.0,4.0,84,0.00,,,0.00,,2013-02-02 16:42:00,
2013-02-02 11:52:00,23.0,19.0,30.05,ESE,110,0.0,4.0,83,0.00,,,0.00,,2013-02-02 16:52:00,
2013-02-02 12:02:00,23.0,19.0,30.05,East,82,0.0,5.0,83,0.00,,,0.00,,2013-02-02 17:02:00,
2013-02-02 12:11:00,23.0,19.0,30.05,East,82,0.0,5.0,83,0.00,,,0.00,,2013-02-02 17:11:00,
2013-02-02 12:22:00,24.0,20.0,30.04,ENE,78,1.0,5.0,83,0.00,,,0.00,,2013-02-02 17:22:00,
2013-02-02 12:32:00,24.0,20.0,30.04,ENE,63,0.0,3.0,83,0.00,,,0.00,,2013-02-02 17:32:00,
2013-02-02 12:42:00,24.0,20.0,30.04,ENE,63,0.0,3.0,83,0.00,,,0.00,,2013-02-02 17:42:00,
2013-02-02 12:52:00,24.0,20.0,30.03,NNW,331,0.0,3.0,83,0.00,,,0.00,,2013-02-02 17:52:00,
2013-02-02 13:02:00,25.0,20.0,30.03,ESE,116,1.0,2.0,82,0.00,,,0.00,,2013-02-02 18:02:00,
2013-02-02 13:12:00,25.0,20.0,30.03,ESE,116,1.0,2.0,82,0.00,,,0.00,,2013-02-02 18:12:00,
2013-02-02 13:22:00,25.0,20.0,30.02,ESE,121,2.0,3.0,82,0.00,,,0.00,,2013-02-02 18:22:00,
2013-02-02 13:32:00,25.0,20.0,30.02,East,83,2.0,4.0,82,0.00,,,0.00,,2013-02-02 18:32:00,
2013-02-02 13:42:00,25.0,20.0,30.02,East,83,2.0,4.0,82,0.00,,,0.00,,2013-02-02 18:42:00,
2013-02-02 13:52:00,25.0,21.0,30.01,ESE,111,1.0,3.0,83,0.00,,,0.00,,2013-02-02 18:52:00,
2013-02-02 14:02:00,25.0,21.0,30.01,East,92,0.0,3.0,83,0.00,,,0.00,,2013-02-02 19:02:00,
2013-02-02 14:12:00,25.0,21.0,30.01,East,92,0.0,3.0,83,0.00,,,0.00,,2013-02-02 19:12:00,
2013-02-02 14:21:00,25.0,21.0,30.01,NW,308,1.0,3.0,83,0.00,,,0.00,,2013-02-02 19:21:00,
2013-02-02 14:32:00,23.0,19.0,30.01,NW,320,0.0,4.0,83,0.00,,,0.00,,2013-02-02 19:32:00,
2013-02-02 14:42:00,23.0,19.0,30.01,NW,320,0.0,4.0,83,0.00,,,0.00,,2013-02-02 19:42:00,
2013-02-02 14:52:00,23.0,18.0,30.02,West,273,0.0,6.0,80,0.00,,,0.00,,2013-02-02 19:52:00,
2013-02-02 15:01:00,23.0,17.0,30.02,SSW,194,1.0,2.0,78,0.00,,,0.00,,2013-02-02 20:01:00,
2013-02-02 15:11:00,23.0,17.0,30.02,SSW,194,1.0,2.0,78,0.00,,,0.00,,2013-02-02 20:11:00,
2013-02-02 15:21:00,24.0,18.0,30.02,SW,226,0.0,1.0,77,0.00,,,0.00,,2013-02-02 20:21:00,
2013-02-02 15:32:00,24.0,17.0,30.02,SSW,210,0.0,2.0,75,0.00,,,0.00,,2013-02-02 20:32:00,
2013-02-02 15:41:00,24.0,17.0,30.02,SSW,210,0.0,2.0,75,0.00,,,0.00,,2013-02-02 20:41:00,
2013-02-02 15:52:00,23.0,16.0,30.04,WNW,292,0.0,0.0,74,0.00,,,0.00,,2013-02-02 20:52:00,
2013-02-02 16:02:00,23.0,16.0,30.04,WSW,250,0.0,2.0,74,0.00,,,0.00,,2013-02-02 21:02:00,
2013-02-02 16:11:00,23.0,16.0,30.04,WSW,250,0.0,2.0,74,0.00,,,0.00,,2013-02-02 21:11:00,
2013-02-02 16:21:00,23.0,16.0,30.04,West,267,0.0,1.0,74,0.00,,,0.00,,2013-02-02 21:21:00,
2013-02-02 16:32:00,23.0,16.0,30.04,West,267,0.0,0.0,74,0.00,,,0.00,,2013-02-02 21:32:00,
2013-02-02 16:42:00,23.0,16.0,30.04,West,267,0.0,0.0,74,0.00,,,0.00,,2013-02-02 21:42:00,
2013-02-02 16:52:00,23.0,17.0,30.05,West,275,0.0,0.0,76,0.00,,,0.00,,2013-02-02 21:52:00,
2013-02-02 17:02:00,23.0,17.0,30.05,West,271,0.0,1.0,76,0.00,,,0.00,,2013-02-02 22:02:00,
2013-02-02 17:11:00,23.0,17.0,30.05,West,271,0.0,1.0,76,0.00,,,0.00,,2013-02-02 22:11:00,
2013-02-02 17:21:00,22.0,16.0,30.06,WSW,244,0.0,1.0,78,0.00,,,0.00,,2013-02-02 22:21:00,
2013-02-02 17:32:00,22.0,16.0,30.06,WNW,299,0.0,1.0,79,0.00,,,0.00,,2013-02-02 22:32:00,
2013-02-02 17:42:00,22.0,16.0,30.06,WNW,299,0.0,1.0,79,0.00,,,0.00,,2013-02-02 22:42:00,
2013-02-02 17:52:00,21.0,16.0,30.07,WSW,244,0.0,2.0,80,0.00,,,0.00,,2013-02-02 22:52:00,
2013-02-02 18:01:00,21.0,16.0,30.07,WSW,254,0.0,2.0,80,0.00,,,0.00,,2013-02-02 23:01:00,
2013-02-02 18:11:00,21.0,16.0,30.07,WSW,254,0.0,2.0,80,0.00,,,0.00,,2013-02-02 23:11:00,
2013-02-02 18:21:00,20.0,15.0,30.07,WNW,287,1.0,2.0,81,0.00,,,0.00,,2013-02-02 23:21:00,
2013-02-02 18:32:00,19.0,14.0,30.07,NW,311,0.0,1.0,81,0.00,,,0.00,,2013-02-02 23:32:00,
2013-02-02 18:42:00,19.0,14.0,30.07,NW,311,0.0,1.0,81,0.00,,,0.00,,2013-02-02 23:42:00,
2013-02-02 18:52:00,18.0,13.0,30.08,WNW,294,1.0,3.0,79,0.00,,,0.00,,2013-02-02 23:52:00,
2013-02-02 19:01:00,18.0,12.0,30.08,West,276,0.0,2.0,78,0.00,,,0.00,,2013-02-03 00:01:00,
2013-02-02 19:11:00,18.0,12.0,30.08,West,276,0.0,2.0,78,0.00,,,0.00,,2013-02-03 00:11:00,
2013-02-02 19:22:00,18.0,12.0,30.09,WNW,282,1.0,3.0,77,0.00,,,0.00,,2013-02-03 00:22:00,
2013-02-02 19:32:00,18.0,12.0,30.09,NW,323,1.0,3.0,76,0.00,,,0.00,,2013-02-03 00:32:00,
2013-02-02 19:41:00,18.0,12.0,30.09,NW,323,1.0,3.0,76,0.00,,,0.00,,2013-02-03 00:41:00,
2013-02-02 19:52:00,18.0,12.0,30.09,NW,311,0.0,1.0,76,0.00,,,0.00,,2013-02-03 00:52:00,
2013-02-02 20:02:00,18.0,11.0,30.09,NW,311,0.0,0.0,75,0.00,,,0.00,,2013-02-03 01:02:00,
2013-02-02 20:11:00,17.0,10.0,30.09,West,276,0.0,2.0,75,0.00,,,0.00,,2013-02-03 01:11:00,
2013-02-02 20:21:00,17.0,10.0,30.09,West,276,0.0,2.0,75,0.00,,,0.00,,2013-02-03 01:21:00,
2013-02-02 20:32:00,17.0,10.0,30.09,West,279,0.0,3.0,74,0.00,,,0.00,,2013-02-03 01:32:00,
2013-02-02 20:42:00,17.0,10.0,30.09,West,279,0.0,3.0,74,0.00,,,0.00,,2013-02-03 01:42:00,
2013-02-02 20:52:00,17.0,10.0,30.10,SSE,161,1.0,2.0,74,0.00,,,0.00,,2013-02-03 01:52:00,
2013-02-02 21:01:00,17.0,10.0,30.10,SE,146,0.0,2.0,73,0.00,,,0.00,,2013-02-03 02:01:00,
2013-02-02 21:11:00,17.0,10.0,30.10,SE,146,0.0,2.0,73,0.00,,,0.00,,2013-02-03 02:11:00,
2013-02-02 21:21:00,17.0,10.0,30.11,WSW,250,1.0,2.0,73,0.00,,,0.00,,2013-02-03 02:21:00,
2013-02-02 21:32:00,17.0,10.0,30.11,West,263,0.0,0.0,72,0.00,,,0.00,,2013-02-03 02:32:00,
2013-02-02 21:41:00,17.0,10.0,30.11,West,263,0.0,0.0,72,0.00,,,0.00,,2013-02-03 02:41:00,
2013-02-02 21:52:00,17.0,10.0,30.10,SW,224,0.0,2.0,72,0.00,,,0.00,,2013-02-03 02:52:00,
2013-02-02 22:02:00,17.0,9.0,30.10,WNW,295,0.0,2.0,71,0.00,,,0.00,,2013-02-03 03:02:00,
2013-02-02 22:11:00,17.0,9.0,30.10,West,280,0.0,3.0,69,0.00,,,0.00,,2013-02-03 03:11:00,
2013-02-02 22:21:00,17.0,9.0,30.10,West,280,0.0,3.0,69,0.00,,,0.00,,2013-02-03 03:21:00,
2013-02-02 22:31:00,17.0,9.0,30.10,WNW,298,0.0,4.0,69,0.00,,,0.00,,2013-02-03 03:31:00,
2013-02-02 22:42:00,17.0,9.0,30.10,WNW,298,0.0,4.0,69,0.00,,,0.00,,2013-02-03 03:42:00,
2013-02-02 22:52:00,17.0,8.0,30.10,West,280,0.0,2.0,68,0.00,,,0.00,,2013-02-03 03:52:00,
2013-02-02 23:01:00,16.0,7.0,30.10,West,280,0.0,1.0,67,0.00,,,0.00,,2013-02-03 04:01:00,
2013-02-02 23:11:00,16.0,7.0,30.10,West,280,0.0,1.0,67,0.00,,,0.00,,2013-02-03 04:11:00,
2013-02-02 23:21:00,16.0,7.0,30.09,West,280,0.0,1.0,67,0.00,,,0.00,,2013-02-03 04:21:00,
2013-02-02 23:31:00,16.0,7.0,30.09,West,280,0.0,0.0,67,0.00,,,0.00,,2013-02-03 04:31:00,
2013-02-02 23:42:00,16.0,7.0,30.09,West,280,0.0,0.0,67,0.00,,,0.00,,2013-02-03 04:42:00,
2013-02-02 23:52:00,16.0,8.0,30.08,West,280,0.0,0.0,69,0.00,,,0.00,,2013-02-03 04:52:00,